Terug naar catalogus

GEESAT 2-04

ActiefCommunicatieVLEO
NORAD 58908·PAYLOAD·🇨🇳 China

Gelanceerd Feb 2, 2024 vanaf Xichang Satellite Launch Center

Loading…

Volgende Passages (komende 24 uur)

TLE

VersSource: Space-Track

Epoch: Sep 14, 2026, 21:56 UTC

1 58908U 24023D   26257.91413423  .00001122  00000-0  11695-3 0  9991
2 58908  49.9925 258.3979 0006193  27.1287 332.9980 14.97498349142772

Volg GEESAT 2-04 in realtime met AllMySat

Download on the App Store